This is the latest recevied weather packets stored in our database for station/object KD2SIG. If no packets are shown the sender has not sent any weather packets the latest 10 day(s).
| Time | Temp. | Humidity | Pressure | Rain* | Wind** | Luminosity | Snow |
|---|---|---|---|---|---|---|---|
| 1776986024 | 12.78° C | 53% | 1013.9 hPa | 0 mm | - | 8 W/m² | - |
| 1776985721 | 12.78° C | 53% | 1013.9 hPa | 0 mm | - | 13 W/m² | - |
| 1776985418 | 12.78° C | 53% | 1014 hPa | 0 mm | - | 15 W/m² | - |
| 1776985114 | 12.78° C | 53% | 1014.2 hPa | 0 mm | - | 18 W/m² | - |
| 1776984814 | 12.78° C | 53% | 1014.1 hPa | 0 mm | - | 26 W/m² | - |
| 1776984512 | 12.78° C | 53% | 1014.1 hPa | 0 mm | - | 40 W/m² | - |
| 1776984207 | 12.78° C | 53% | 1013.8 hPa | 0 mm | - | 41 W/m² | - |
| 1776983902 | 12.78° C | 52% | 1014 hPa | 0 mm | - | 58 W/m² | - |
| 1776983599 | 13.33° C | 51% | 1014.1 hPa | 0 mm | - | 70 W/m² | - |
| 1776983295 | 13.33° C | 52% | 1014 hPa | 0 mm | - | 58 W/m² | - |
| 1776982993 | 13.33° C | 53% | 1014.1 hPa | 0 mm | - | 54 W/m² | - |
| 1776982690 | 13.33° C | 53% | 1014.3 hPa | 0 mm | - | 42 W/m² | - |
| 1776982387 | 13.89° C | 51% | 1014.2 hPa | 0 mm | - | 50 W/m² | - |
| 1776982086 | 13.89° C | 49% | 1014.3 hPa | 0 mm | - | 55 W/m² | - |
| 1776981781 | 13.89° C | 49% | 1014.4 hPa | 0 mm | - | 49 W/m² | - |
| 1776981476 | 14.44° C | 48% | 1014.4 hPa | 0 mm | - | 53 W/m² | - |
| 1776981173 | 14.44° C | 45% | 1014.1 hPa | 0 mm | - | 39 W/m² | - |
| 1776980873 | 14.44° C | 45% | 1014 hPa | 0 mm | - | 49 W/m² | - |
| 1776980572 | 14.44° C | 45% | 1014.2 hPa | 0 mm | - | 58 W/m² | - |
| 1776980267 | 15° C | 47% | 1014.2 hPa | 0 mm | - | 41 W/m² | - |
| 1776979964 | 15° C | 46% | 1014.4 hPa | 0 mm | - | 48 W/m² | - |
| 1776979658 | 15° C | 45% | 1014.2 hPa | 0 mm | - | 67 W/m² | - |
| 1776979356 | 15° C | 45% | 1014.1 hPa | 0 mm | - | 101 W/m² | - |
| 1776979052 | 15° C | 45% | 1014.2 hPa | 0 mm | - | 133 W/m² | - |
| 1776978749 | 15° C | 45% | 1014.2 hPa | 0 mm | - | 142 W/m² | - |
* Rain latest hour (hover to see other rain measurements)
** Current wind speed in m/s (hover to see current wind gust speed)